Regional Weather Roundup
Issued by NWS Goodland, KS

Home | Current Version | Previous Version | Graphics & Text | Print | Product List | Glossary On
Versions: 1 2 3 4 5 6 7 8 9 10 11 12 13 14 15 16 17 18 19 20 21 22 23 24 25 26 27 28 29 30 31 32 33 34 35 36 37 38 39 40 41 42 43 44 45 46 47 48 49 50
000
ASUS43 KGLD 261259
RWRGLD

GOODLAND FORECAST AREA HOURLY WEATHER ROUNDUP
NATIONAL WEATHER SERVICE GOODLAND KS
700 AM MDT SUN APR 26 2015

...OFFICIAL OBSERVATIONS...

CITY           SKY/WX    TMP DP  RH WIND       PRES   REMARKS
GOODLAND KS    FOG       43  43 100 E15       29.87R VSB 3/4
HILL CITY KS   CLOUDY    46  44  93 E15       29.90S
IMPERIAL NEB   CLOUDY    43  41  93 E13       29.90R FOG
MCCOOK NEB     CLOUDY    45  43  93 E15G26    29.91R FOG
AKRON CO       FOG       42  42 100 E15       29.84R VSB<1/4
BURLINGTON CO  FOG       43  42  97 E14       29.85S VSB 1/2
LIMON CO       CLOUDY    43  42  97 E16       29.83R
$$

...UNOFFICIAL OBSERVATIONS...

CITY           SKY/WX    TMP DP  RH WIND       PRES   REMARKS
GOVE KS          N/A     46  32  58 MISG        N/A
LENORA KS        N/A     44  32  63 MISG        N/A
SHARON SPRINGS   N/A     44  43  97 N12G20      N/A
KIT CARSON CO    N/A     44  42  92 MISG        N/A
YUMA CO          N/A     54  54 100 E13         N/A
$$



USA.gov is the U.S. government's official web portal to all federal, state and local government web resources and services.